Regional Weather Roundup
Issued by NWS Little Rock, AR

Home | Current Version | Previous Version | Text Only | Print | Product List | Glossary Off
Versions: 1 2 3 4 5 6 7 8 9 10 11 12 13 14 15 16 17 18 19 20 21 22 23 24 25 26 27 28 29 30 31 32 33 34 35 36 37 38 39 40 41 42 43 44 45 46 47 48 49 50

000
ASUS44 KLZK 221905
RWRLZK

WEATHER ROUNDUP FOR ARKANSAS
NATIONAL WEATHER SERVICE LITTLE ROCK AR
200 PM CDT FRI AUG 22 2014

NOTE: "FAIR" INDICATES FEW OR NO CLOUDS BELOW 12,000 FEET WITH NO
SIGNIFICANT WEATHER AND/OR OBSTRUCTIONS TO VISIBILITY.

ARZ001-003-010-029-222000-
NORTHWEST ARKANSAS

CITY           SKY/WX    TMP DP  RH WIND       PRES   REMARKS
FAYETTEVILLE   SUNNY     92  73  53 S14       30.04F HX 100
FORT SMITH     SUNNY     94  74  52 S6        30.00F HX 104
HARRISON       SUNNY     93  72  50 S7        30.05F HX 101
BENTONVILLE    SUNNY     93  73  52 SW10      30.05F HX 102
ROGERS         SUNNY     93  70  46 SW9G20    30.04F HX  99
SILOAM SPGS    SUNNY     90  72  55 SW12      30.04F HX  96
HIGHFILL       SUNNY     93  72  50 S13       30.03F HX 101
SPRINGDALE     SUNNY     91  72  52 SW12      30.06F HX  98
$$

ARZ004-005-016-222000-
NORTH CENTRAL ARKANSAS

CITY           SKY/WX    TMP DP  RH WIND       PRES   REMARKS
BATESVILLE     MOSUNNY   95  72  46 SW8       30.02F HX 103
FLIPPIN          N/A     93  70  46 S8        30.03S HX  99
MTN HOME       SUNNY     96  69  41 VRB3      30.01F HX 102
$$

ARZ040-041-222000-
WEST CENTRAL ARKANSAS

CITY           SKY/WX    TMP DP  RH WIND       PRES   REMARKS
MENA           SUNNY     91  77  62 SW5       30.08S HX 105
MOUNT IDA      SUNNY     90  75  61 VRB3      30.04F HX 100
$$

ARZ009-017-025-026-028-222000-
NORTHEAST ARKANSAS

CITY           SKY/WX    TMP DP  RH WIND       PRES   REMARKS
CORNING        LGT RAIN  91  77  62 SE10      30.01F HX 105
JONESBORO      SUNNY     95  75  52 SW9       30.01F HX 107
NEWPORT        PTSUNNY   94  77  57 S10       30.02F HX 108
WALNUT RIDGE   MOSUNNY   93  75  55 S10       30.00F HX 104
BLYTHEVILLE    MOSUNNY   92  79  65 SW8       30.03F HX 108
$$

ARZ022-023-033-042-044-222000-
CENTRAL ARKANSAS

CITY           SKY/WX    TMP DP  RH WIND       PRES   REMARKS
LITTLE ROCK    SUNNY     93  72  50 SW8       30.03F HX 101
N LITTLE ROCK  SUNNY     93  74  53 SW8       30.03F HX 102
JACKSONVILLE   MOSUNNY   94  76  55 S3        30.03F HX 106
SEARCY           N/A     94  76  55 CALM        N/A  HX 106
HOT SPRINGS    SUNNY     90  75  61 SW8       30.06F HX 100
RUSSELLVILLE   SUNNY     93  73  52 VRB3      30.03F HX 102
CLINTON        FAIR      95  73  49 W7        30.03F HAZE    HX 105
$$

ARZ036-222000-
EAST ARKANSAS

CITY           SKY/WX    TMP DP  RH WIND       PRES   REMARKS
WEST MEMPHIS   MOSUNNY   93  76  57 W6        30.03F HX 105
$$

ARZ050-053-066-070-073-222000-
SOUTHWEST ARKANSAS

CITY           SKY/WX    TMP DP  RH WIND       PRES   REMARKS
ARKADELPHIA    FAIR      92  78  63 VRB3      30.05F HX 107
CAMDEN         SUNNY     93  72  49 SW5       30.05F HX 100
TEXARKANA      SUNNY     91  71  51 SW10      30.06F HX  97
EL DORADO      SUNNY     90  73  57 VRB5      30.07F HX  98
DE QUEEN       MOSUNNY   89  75  63 S7        30.03F HX  99
$$

ARZ056-057-069-222000-
SOUTHEAST ARKANSAS

CITY           SKY/WX    TMP DP  RH WIND       PRES   REMARKS
PINE BLUFF     SUNNY     91  73  55 SW7       30.05F HX  99
STUTTGART      SUNNY     93  73  52 SW12      30.05F HX 102
MONTICELLO     SUNNY     91  70  49 SW5       30.06F HX  96

$$





USA.gov is the U.S. government's official web portal to all federal, state and local government web resources and services.